RH
92 81 80 96 94 94 86 75 81 84 89 100 100 100 100 100 100 100 100 100 99 86 46 36 37 42 41 41 42 41 37 36 35 35 34 33 32 33 32 32 34 35 35 36
82 51 50 47 56 65 67 67 78 100 94 100 100 100 100 100 100 100 100 100 100 92 60 41 36 44 46 44 43 43 42 39 39 39 38 36 35 35 34 31 30 31 32 33
63 48 40 39 35 48 69 77 87 100 98 100 100 100 100 100 100 100 100 100 100 100 68 50 39 39 49 49 48 48 46 46 45 44 42 43 43 42 42 40 35 33 32 32
49 41 39 47 50 62 71 76 89 100 95 100 100 100 100 100 100 100 100 100 100 100 99 67 48 41 44 53 51 50 50 50 49 48 47 48 48 51 51 48 48 48 40 37
43 27 26 32 53 62 71 65 83 100 97 100 100 100 100 100 100 100 100 100 100 100 100 98 65 47 42 46 53 54 52 48 46 46 47 47 49 52 54 55 56 54 54 55
37 29 26 28 35 46 52 56 78 100 97 93 100 100 100 100 100 100 100 100 100 100 100 100 89 55 48 46 46 50 54 54 52 49 47 46 44 43 48 53 54 54 58 58
40 39 40 36 32 33 38 55 73 91 88 94 100 100 100 100 100 100 100 100 100 100 100 100 100 92 64 53 51 48 49 51 52 52 51 50 47 45 43 42 44 49 54 55
71 52 51 53 43 44 45 67 74 88 97 100 100 100 100 100 100 100 100 100 100 100 100 100 100 100 100 81 57 53 55 54 54 54 52 49 47 45 43 42 41 41 42 44
80 80 76 73 60 54 57 62 76 80 89 92 100 100 100 100 100 100 100 100 100 100 100 100 100 100 100 100 92 76 60 58 58 56 54 51 50 49 47 46 44 43 43 42
100 100 98 95 88 75 68 82 67 71 90 90 100 100 100 100 100 100 100 100 100 100 100 100 100 100 100 100 100 100 92 76 65 59 57 54 52 51 50 49 50 49 49 48
100 99 100 100 93 99 93 82 75 75 88 93 95 100 100 100 100 100 100 100 100 100 100 100 100 100 100 100 100 100 100 100 97 88 75 64 60 56 53 50 48 47 46 46
100 100 100 100 100 100 91 98 93 79 80 90 100 100 100 100 100 100 100 100 100 100 100 100 100 100 100 100 100 100 100 100 100 100 100 96 89 79 70 66 62 58 53 48
100 100 100 95 93 100 95 99 100 90 87 76 79 96 100 100 100 100 100 100 100 100 100 100 100 100 100 100 99 97 96 96 96 97 98 99 99 98 94 88 81 75 70 65
100 92 100 100 100 100 100 100 100 100 99 93 80 72 86 100 100 100 100 100 100 100 100 100 100 100 100 100 100 100 100 95 90 86 81 77 73 70 68 67 67 66 64 62
90 84 90 99 100 100 100 100 100 99 94 88 89 81 86 98 100 100 100 100 100 100 100 100 100 100 100 100 100 98 95 92 89 84 81 78 76 71 68 65 62 60 59 58
96 100 100 100 94 100 100 100 100 100 100 92 86 81 77 76 78 82 83 86 90 92 97 100 97 93 94 96 98 97 92 87 84 83 84 84 83 82 80 78 75 73 69 66
100 79 89 100 100 100 96 87 89 100 100 100 100 100 100 100 93 91 92 94 91 88 88 87 85 84 82 81 80 80 82 84 83 83 83 86 86 85 83 80 77 74 74 73
100 100 86 67 81 97 99 100 100 100 100 100 100 100 100 100 97 91 89 89 85 79 73 68 66 65 67 71 72 72 70 68 65 64 62 59 57 57 58 59 59 60 60 60
100 100 100 100 97 81 85 97 100 100 100 100 100 100 100 98 94 92 86 81 77 73 71 70 70 68 70 70 69 67 66 66 65 64 63 64 65 65 64 64 62 60 58 55
100 100 99 100 100 99 99 89 86 87 85 97 100 100 100 100 94 90 85 84 83 81 80 80 81 77 74 73 74 73 70 65 61 59 58 58 59 58 56 53 50 48 46 44
100 100 97 97 96 88 94 99 99 96 97 99 95 94 95 97 96 94 93 90 86 81 78 75 70 66 66 67 68 67 63 58 54 48 45 42 38 36 33 31 29 26 24 21
100 100 100 100 98 96 100 100 100 100 99 97 94 91 89 86 81 78 75 72 72 75 73 68 63 62 60 58 54 53 50 48 48 49 46 38 31 26 20 18 17 16 15 15
100 100 100 98 99 100 100 100 100 100 99 99 99 97 94 92 90 82 74 72 76 80 77 74 74 74 73 70 68 65 55 48 44 40 36 30 23 19 17 15 14 13 12 10
100 100 99 96 98 100 99 97 98 99 100 100 100 97 95 95 96 100 99 99 95 88 84 81 78 76 72 58 51 45 43 38 33 30 25 19 15 14 13 12 11 9 9 8
99 100 100 100 98 95 91 93 97 99 100 98 97 97 99 99 98 95 90 85 80 75 72 72 70 66 60 50 41 32 24 19 19 19 17 15 12 11 10 10 10 9 8 8
100 100 100 100 100 100 100 100 100 98 95 91 90 90 90 87 84 80 77 76 74 73 71 68 61 50 37 28 25 22 19 16 13 12 12 12 11 11 10 9 9 8 8 8
Wind_Speed
50 51 52 62 65 62 59 57 57 53 51 53 53 59 62 63 62 56 53 51 51 47 46 44 43 41 43 45 45 46 46 45 44 44 44 43 43 43 43 43 43 42 42 42
48 52 62 64 66 64 61 55 51 53 50 53 56 60 63 62 61 59 57 54 52 49 48 47 46 45 44 46 47 48 48 49 48 47 47 47 47 47 47 48 48 48 48 47
52 59 57 57 62 62 56 53 53 57 59 59 62 62 63 63 61 60 58 57 55 53 51 49 49 49 49 49 50 50 51 52 52 51 51 51 51 51 51 51 52 52 53 53
49 50 52 54 56 59 58 58 59 62 62 61 65 60 61 64 61 60 59 58 57 56 55 54 53 54 54 54 53 54 55 55 55 55 55 56 55 56 55 56 56 56 56 57
46 45 51 56 61 61 64 62 65 67 64 65 62 62 60 60 60 61 60 60 61 61 60 60 58 58 58 59 59 58 58 58 58 59 59 60 61 61 61 61 61 61 61 62
36 38 46 58 63 64 68 65 67 67 65 59 62 62 64 61 62 62 61 61 63 64 64 64 63 62 62 62 63 64 64 64 63 63 63 63 64 66 67 67 67 68 68 68
35 36 43 54 60 62 65 65 65 65 61 54 64 65 61 61 63 62 59 62 65 67 68 68 68 67 66 67 67 67 68 68 69 69 68 68 68 69 70 72 73 74 74 75
31 35 43 50 56 60 66 68 66 66 63 64 70 63 60 62 63 62 63 66 68 70 71 71 71 71 71 70 71 72 72 73 74 74 74 74 74 73 73 74 75 77 79 80
34 34 40 48 56 62 65 65 68 67 66 67 65 61 62 63 64 66 68 68 69 69 70 72 74 74 74 75 76 76 77 77 78 79 79 79 79 79 79 79 80 80 81 81
38 37 38 45 53 59 62 67 70 67 67 66 65 65 63 67 70 71 72 70 70 71 74 75 76 77 78 79 80 81 82 82 82 83 83 84 85 85 85 86 87 87 87 87
43 42 42 44 46 53 59 64 68 69 70 68 67 67 69 70 72 73 73 73 73 74 76 77 78 79 80 82 84 85 87 87 88 89 90 90 91 91 92 93 94 94 95 95
50 48 47 46 49 51 55 59 65 69 69 71 71 70 70 73 75 76 77 77 76 77 77 78 79 80 81 83 85 88 90 92 94 95 96 97 98 99 99 100 101 102 102 103
55 51 52 52 51 51 52 54 58 63 68 71 74 71 76 76 77 78 78 80 81 81 81 81 82 83 85 87 88 90 91 92 95 97 99 101 103 104 106 106 107 108 108 109
62 58 55 54 55 58 59 60 61 63 66 68 71 74 76 79 81 82 82 83 84 84 85 85 86 87 89 91 92 94 96 97 99 101 102 104 105 106 107 109 110 111 111 112
68 65 63 62 60 61 62 64 66 68 69 70 69 72 75 77 79 81 82 85 86 88 89 91 92 93 94 96 98 99 101 103 104 106 108 109 110 111 112 113 114 116 117 118
75 70 67 67 68 67 67 67 68 70 71 71 73 75 77 80 82 83 86 87 89 91 93 95 96 98 99 101 102 104 105 107 109 110 112 113 115 116 117 119 120 122 123 124
79 79 77 74 73 72 73 70 71 72 73 74 74 75 78 80 83 86 88 91 93 95 96 98 100 102 104 105 107 109 110 112 114 116 117 119 120 122 123 125 127 128 130 132
85 84 84 82 79 78 73 75 75 76 77 78 80 82 84 86 87 89 91 93 96 98 100 102 104 105 107 109 111 113 114 116 118 120 123 124 126 127 129 130 132 133 135 136
92 91 91 86 86 82 81 81 82 83 83 84 84 85 87 89 91 93 95 97 99 101 102 104 106 107 109 111 114 116 117 119 121 123 125 126 128 130 132 134 136 138 140 142
88 90 94 93 92 90 88 89 89 89 89 88 89 89 91 93 95 97 99 100 102 104 105 107 109 111 113 115 118 121 123 124 126 129 131 134 135 137 140 142 145 147 149 151
92 89 91 92 92 90 89 91 92 93 93 93 94 95 96 97 99 100 102 104 107 108 110 113 115 117 118 121 123 127 130 131 134 136 140 143 144 145 146 147 149 150 152 153
92 96 95 92 92 91 92 93 95 95 95 96 98 100 102 104 105 107 109 110 112 113 116 118 121 124 126 128 130 134 136 137 139 141 143 144 144 144 142 140 140 139 139 138
85 87 91 95 97 98 98 98 98 97 97 98 99 101 104 106 108 111 113 115 116 117 119 122 125 129 133 134 135 137 137 136 136 137 138 138 136 134 132 130 130 130 131 130
81 82 84 85 86 89 92 94 95 97 99 102 104 106 106 108 110 112 115 118 121 123 124 124 125 127 130 129 129 127 126 125 124 125 127 128 127 125 124 123 123 122 122 121
82 82 81 82 82 83 85 86 88 90 93 96 98 101 102 105 107 109 111 113 114 115 115 116 117 118 119 119 120 120 119 117 118 118 118 118 117 117 115 114 114 114 114 112
83 84 84 85 85 84 84 85 86 88 90 92 93 95 98 100 102 103 104 105 106 106 106 107 109 111 113 113 114 115 112 110 109 107 106 106 106 107 108 108 109 110 108 109
Wind_Direction
240 241 241 237 234 231 228 228 229 226 227 228 222 225 229 229 231 230 235 238 240 236 238 239 236 237 240 240 238 237 235 235 235 235 237 238 238 239 239 240 242 243 242 243
243 242 237 235 233 230 227 227 228 230 228 226 223 226 228 228 229 231 231 232 232 232 237 239 238 237 241 242 243 241 240 239 239 240 242 244 244 244 245 244 245 245 245 245
242 241 237 234 231 229 226 226 225 225 225 220 221 224 226 226 227 229 230 232 232 230 236 239 240 239 240 242 243 244 244 243 243 244 244 246 248 248 248 248 248 248 249 249
247 243 236 234 227 224 221 222 221 223 226 220 219 224 226 227 227 228 230 233 234 233 236 240 241 241 241 242 243 245 245 246 246 247 247 248 249 250 251 252 251 251 251 251
248 239 229 224 224 221 223 221 219 220 224 221 221 221 228 230 231 230 231 233 235 236 236 239 241 242 243 244 245 246 248 249 249 250 250 251 251 252 253 254 254 254 253 253
252 240 232 224 223 222 223 220 219 220 224 222 224 222 228 229 230 231 233 235 237 237 239 240 241 243 244 245 246 247 249 250 251 252 254 255 255 254 253 254 255 255 256 256
249 236 226 223 222 221 222 220 221 222 224 223 224 224 227 231 233 234 236 236 238 239 240 241 242 244 244 245 246 248 250 251 252 253 254 255 256 257 257 256 256 256 256 256
248 239 230 225 222 220 218 218 220 221 221 221 225 221 224 231 233 235 237 238 239 240 241 242 244 245 246 247 248 249 250 251 253 254 255 255 255 256 256 257 258 258 257 257
245 240 233 230 226 222 220 220 222 222 223 224 228 225 227 233 236 238 238 240 242 244 245 246 247 247 248 248 248 249 251 252 253 254 255 256 257 257 257 257 258 258 259 259
239 237 237 233 230 227 225 224 225 224 225 226 226 228 228 233 236 238 241 243 244 246 247 248 249 250 250 250 251 251 252 253 254 255 256 256 257 258 258 258 258 258 258 259
234 234 234 234 236 234 230 229 229 226 225 226 226 228 231 235 238 241 244 245 246 247 248 249 250 251 252 253 254 254 255 256 256 256 256 257 257 258 258 258 259 259 259 259
234 234 233 234 234 235 235 234 235 231 228 228 228 228 233 236 239 241 243 245 247 250 251 252 253 254 255 256 256 257 257 257 258 259 259 259 259 260 260 260 260 260 260 260
233 233 235 235 236 238 241 240 240 239 238 234 231 227 232 235 239 242 244 246 248 250 252 253 254 255 256 257 257 257 258 258 259 259 260 260 261 261 262 262 263 263 263 263
233 234 233 235 237 237 237 238 239 241 240 239 237 235 235 238 239 241 244 246 249 250 252 254 255 256 257 258 259 259 260 261 261 262 262 262 263 263 263 263 264 264 264 264
236 234 234 232 234 238 241 242 244 244 243 243 242 240 241 243 244 245 246 248 249 250 252 253 255 256 257 257 258 259 260 261 262 263 264 265 265 265 265 265 266 266 266 266
238 235 237 238 236 235 238 240 242 245 247 249 248 248 247 247 248 249 250 251 252 253 254 255 256 257 259 260 261 261 262 263 264 265 265 266 266 267 267 267 267 267 267 267
240 241 236 237 239 241 241 243 244 246 247 248 250 251 252 252 253 253 253 253 253 255 256 257 258 258 259 261 262 263 264 265 265 266 266 266 267 267 267 268 268 268 268 268
238 241 244 241 239 241 243 245 246 247 249 250 250 250 251 252 254 255 256 256 257 258 259 260 261 262 263 264 265 265 266 266 267 267 268 268 269 269 269 269 269 269 269 269
239 240 243 244 247 246 247 247 247 248 249 251 252 254 255 256 257 258 259 260 261 262 263 263 264 264 265 266 267 267 268 268 269 270 270 270 270 270 270 270 270 270 270 270
241 242 242 244 244 245 248 249 251 251 252 254 255 256 258 258 259 260 261 262 263 264 265 266 267 267 268 268 269 270 270 270 271 271 272 272 272 271 271 271 271 270 270 270
242 243 245 244 246 248 248 249 252 253 253 255 257 258 260 261 262 262 263 264 265 266 267 268 268 269 270 271 272 272 272 272 273 273 274 274 273 273 273 272 272 272 271 271
240 241 242 244 246 247 249 251 254 256 257 258 259 260 261 262 263 264 266 268 270 270 270 271 272 273 274 275 275 276 276 276 277 278 278 278 278 277 276 276 276 276 276 275
241 242 244 245 247 248 250 252 255 256 258 260 261 262 263 264 265 266 268 271 273 274 274 275 276 277 277 277 278 278 278 278 279 279 279 279 279 279 280 279 278 277 277 276
241 243 245 246 246 248 249 251 253 254 256 257 259 260 262 264 266 268 269 270 272 273 274 275 276 277 278 278 279 279 279 279 279 280 280 281 281 281 281 280 279 279 278 278
240 243 245 247 249 251 252 254 255 257 259 260 262 263 265 266 268 269 271 272 274 275 277 278 278 279 279 280 280 281 281 282 282 282 282 282 282 282 281 281 281 280 280 279
241 242 244 247 250 253 256 258 259 261 262 263 264 266 268 269 271 273 275 276 277 279 279 280 280 280 282 283 284 284 284 285 284 283 283 282 282 282 282 282 282 282 281 281